map of KRQE home
Great Circle Mapper logo
KRQE - Airport
Location
City:  Window Rock, Arizona, United States
ICAO:KRQE
FAA:RQE

Details
Type:Airport (Airfield)
Use:Public/Civil
Latitude:3539'07"N (35.652056)
Longitude:10904'03"W (-109.067388)
Datum:WGS 1984
Elevation:6742 ft (2055 m)
Runways:1
Longest:7000 × 75 ft (2134 × 23 m), paved

Time
Time Zone:UTC-7
Local Time:

Weather
METAR:KRQE 310553Z AUTO 00000KT 10SM CLR 03/M09 A3032 RMK AO2 SLP201 T00331094 10206 20028 50004 TSNO

Related Locations
Nearby:
Farthest:RRG: 11245 mi / 18096 km
Plaine Corail, Rodrigues Island, MU

Find:

   beyond  
but within

Other Information
Maps:
NOTAMs:
Links:
Sources:

  
flag of United States
flag of Arizona
  

Sectional Chart

Flight Planning
at skyvector.com

Satellite Image

Google Maps Satellite View

 

Copyright © 2004-2014 Karl L. Swartz. All rights reserved.
The Great Circle Mapper name and logo are trademarks of the Great Circle Mapper.
All other trademarks mentioned herein belong to their respective owners.
Please see credits for attibutions and further copyright information.

  Follow gcmap on Facebook Follow gcmap on Twitter

hCard Microformat

Geo Microformat